,,PA_Meas_PMT16A,,PR_Meas_QMR101_102,,RH_Meas_QMH101,,SR_Meas_QMS101,,TA_Meas_QMH101,,GenWind,,GenWind,
time,status,PA,status,PR,status,RH,status,SR,status,TA,status,DirAvg,status,SpdAvg,
2011-05-23, 00:00:04,VALID,918.116,VALID,0,VALID,96.0703,VALID,0,VALID,20.9479,VALID,121,VALID,0.442578,
2011-05-23, 00:01:04,VALID,918.119,VALID,0,VALID,96.0245,VALID,0,VALID,20.9495,VALID,121,VALID,0.458594,
2011-05-23, 00:02:04,VALID,918.102,VALID,0,VALID,95.9864,VALID,0,VALID,20.93,VALID,121,VALID,0.493359,
2011-05-23, 00:03:04,VALID,918.102,VALID,0,VALID,95.9254,VALID,0,VALID,20.9495,VALID,121,VALID,0.667578,
2011-05-23, 00:04:04,VALID,918.103,VALID,0,VALID,95.895,VALID,0,VALID,20.969,VALID,121,VALID,0.607813,
2011-05-23, 00:05:04,VALID,918.121,VALID,0,VALID,95.8721,VALID,0,VALID,21.0275,VALID,121,VALID,0.431641,
2011-05-23, 00:06:04,VALID,918.095,VALID,0,VALID,95.7425,VALID,0,VALID,21.0275,VALID,121,VALID,0.487891,
2011-05-23, 00:07:04,VALID,918.137,VALID,0,VALID,95.6662,VALID,0,VALID,21.047,VALID,121,VALID,0.378125,
2011-05-23, 00:08:04,VALID,918.148,VALID,0,VALID,95.5519,VALID,0,VALID,21.0649,VALID,121,VALID,0.423438,
2011-05-23, 00:09:04,VALID,918.157,VALID,0,VALID,95.4985,VALID,0,VALID,21.086,VALID,121,VALID,0.833984,
2011-05-23, 00:10:04,VALID,918.144,VALID,0,VALID,95.4299,VALID,0,VALID,21.1055,VALID,121,VALID,0.843359,
2011-05-23, 00:11:04,VALID,918.162,VALID,0,VALID,95.3918,VALID,0,VALID,21.1461,VALID,121,VALID,0.267188,
2011-05-23, 00:12:04,VALID,918.171,VALID,0,VALID,95.3994,VALID,0,VALID,21.1445,VALID,121,VALID,0.00195313,
2011-05-23, 00:13:04,VALID,918.142,VALID,0,VALID,95.3537,VALID,0,VALID,21.164,VALID,121,VALID,0.0535156,
2011-05-23, 00:14:04,VALID,918.158,VALID,0,VALID,95.2927,VALID,0,VALID,21.164,VALID,121,VALID,0.429297,
2011-05-23, 00:15:04,VALID,918.111,VALID,0,VALID,95.2088,VALID,0.107441,VALID,21.1836,VALID,121,VALID,0.385547,
2011-05-23, 00:16:04,VALID,918.082,VALID,0,VALID,95.2088,VALID,0,VALID,21.1836,VALID,121,VALID,0.23125,
2011-05-23, 00:17:04,VALID,918.037,VALID,0,VALID,95.186,VALID,0,VALID,21.2047,VALID,121,VALID,0,
2011-05-23, 00:18:04,VALID,918.019,VALID,0,VALID,95.1936,VALID,0,VALID,21.1836,VALID,121,VALID,0,
2011-05-23, 00:19:04,VALID,917.989,VALID,0,VALID,95.2088,VALID,0,VALID,21.2047,VALID,121,VALID,0,
2011-05-23, 00:20:04,VALID,917.952,VALID,0,VALID,95.2088,VALID,0,VALID,21.2031,VALID,121,VALID,0,
2011-05-23, 00:21:04,VALID,917.943,VALID,0,VALID,95.1936,VALID,0,VALID,21.1836,VALID,121,VALID,0.358203,
2011-05-23, 00:22:04,VALID,917.911,VALID,0,VALID,95.1021,VALID,0,VALID,21.1836,VALID,121,VALID,0.490234,
2011-05-23, 00:23:04,VALID,917.88,VALID,0,VALID,95.0183,VALID,0,VALID,21.164,VALID,179,VALID,0.773438,
2011-05-23, 00:24:04,VALID,917.825,VALID,0,VALID,94.9573,VALID,0,VALID,21.1657,VALID,179,VALID,0.792188,
2011-05-23, 00:25:04,VALID,917.823,VALID,0,VALID,94.9649,VALID,0,VALID,21.1461,VALID,179,VALID,1.12852,
2011-05-23, 00:26:04,VALID,917.761,VALID,0,VALID,94.9649,VALID,0,VALID,21.1266,VALID,178,VALID,0.991016,
2011-05-23, 00:27:04,VALID,917.766,VALID,0,VALID,94.9115,VALID,0,VALID,21.1055,VALID,153,VALID,0.880078,
2011-05-23, 00:28:04,VALID,917.761,VALID,0,VALID,94.8582,VALID,0,VALID,21.1055,VALID,153,VALID,1.05781,
2011-05-23, 00:29:04,VALID,917.766,VALID,0,VALID,94.8658,VALID,0,VALID,21.0665,VALID,153,VALID,0.764063,
2011-05-23, 00:30:04,VALID,917.785,VALID,0,VALID,94.8658,VALID,0,VALID,21.047,VALID,153,VALID,0.525781,
2011-05-23, 00:31:04,VALID,917.754,VALID,0,VALID,94.7972,VALID,0,VALID,21.0275,VALID,153,VALID,0.853125,
2011-05-23, 00:32:04,VALID,917.749,VALID,0,VALID,94.7057,VALID,0,VALID,21.008,VALID,153,VALID,1.2332,
2011-05-23, 00:33:04,VALID,917.736,VALID,0,VALID,94.6752,VALID,0,VALID,21.008,VALID,153,VALID,0.760547,
2011-05-23, 00:34:04,VALID,917.75,VALID,0,VALID,94.66,VALID,0,VALID,20.9885,VALID,153,VALID,0.259766,
2011-05-23, 00:35:04,VALID,917.733,VALID,0,VALID,94.5075,VALID,0,VALID,20.9901,VALID,153,VALID,0.666406,
2011-05-23, 00:36:04,VALID,917.715,VALID,0,VALID,94.4236,VALID,0.107441,VALID,20.9495,VALID,169,VALID,0.605078,
2011-05-23, 00:37:04,VALID,917.738,VALID,0,VALID,94.4008,VALID,0,VALID,20.9284,VALID,169,VALID,0.2625,
2011-05-23, 00:38:04,VALID,917.723,VALID,0,VALID,94.3779,VALID,0,VALID,20.9511,VALID,155,VALID,0.816797,
2011-05-23, 00:39:04,VALID,917.715,VALID,0,VALID,94.2712,VALID,0,VALID,20.891,VALID,151,VALID,1.63164,
2011-05-23, 00:40:04,VALID,917.685,VALID,0,VALID,94.2635,VALID,0,VALID,20.891,VALID,154,VALID,0.817969,
2011-05-23, 00:41:04,VALID,917.643,VALID,0,VALID,94.2635,VALID,0,VALID,20.8519,VALID,154,VALID,1.42305,
2011-05-23, 00:42:04,VALID,917.606,VALID,0,VALID,94.2864,VALID,0,VALID,20.8519,VALID,153,VALID,1.2332,
2011-05-23, 00:43:04,VALID,917.542,VALID,0,VALID,94.3169,VALID,0,VALID,20.8535,VALID,153,VALID,1.04648,
2011-05-23, 00:44:04,VALID,917.552,VALID,0,VALID,94.3931,VALID,0,VALID,20.8129,VALID,153,VALID,1.28672,
2011-05-23, 00:45:04,VALID,917.527,VALID,0,VALID,94.4389,VALID,0,VALID,20.8129,VALID,152,VALID,1.40078,
2011-05-23, 00:46:04,VALID,917.49,VALID,0,VALID,94.5151,VALID,0,VALID,20.7934,VALID,139,VALID,0.6,
2011-05-23, 00:47:04,VALID,917.443,VALID,0,VALID,94.538,VALID,0,VALID,20.7934,VALID,139,VALID,0.341016,
2011-05-23, 00:48:04,VALID,917.404,VALID,0,VALID,94.5151,VALID,0,VALID,20.7739,VALID,140,VALID,0.467969,
2011-05-23, 00:49:04,VALID,917.38,VALID,0,VALID,94.4617,VALID,0,VALID,20.7544,VALID,145,VALID,0.933594,
2011-05-23, 00:50:04,VALID,917.365,VALID,0,VALID,94.4236,VALID,0,VALID,20.7544,VALID,145,VALID,0.673437,
2011-05-23, 00:51:04,VALID,917.358,VALID,0,VALID,94.3321,VALID,0,VALID,20.7544,VALID,145,VALID,0.697266,
2011-05-23, 00:52:04,VALID,917.352,VALID,0,VALID,94.2483,VALID,0,VALID,20.7349,VALID,122,VALID,1.36328,
2011-05-23, 00:53:04,VALID,917.339,VALID,0,VALID,94.233,VALID,0,VALID,20.7154,VALID,122,VALID,0.628906,
2011-05-23, 00:54:04,VALID,917.338,VALID,0,VALID,94.2788,VALID,0,VALID,20.717,VALID,123,VALID,0.740234,
2011-05-23, 00:55:04,VALID,917.291,VALID,0,VALID,94.3321,VALID,0,VALID,20.6569,VALID,123,VALID,0.6875,
2011-05-23, 00:56:04,VALID,917.279,VALID,0,VALID,94.3398,VALID,0,VALID,20.678,VALID,137,VALID,0.847266,
2011-05-23, 00:57:04,VALID,917.218,VALID,0,VALID,94.3855,VALID,0,VALID,20.639,VALID,138,VALID,0.860156,
2011-05-23, 00:58:04,VALID,917.164,VALID,0,VALID,94.4846,VALID,0,VALID,20.5984,VALID,139,VALID,0.720312,
2011-05-23, 00:59:04,VALID,917.13,VALID,0,VALID,94.5227,VALID,0,VALID,20.5789,VALID,138,VALID,0.930078,
2011-05-23, 01:00:04,VALID,917.084,VALID,0,VALID,94.599,VALID,0,VALID,20.5789,VALID,139,VALID,0.665625,
2011-05-23, 01:01:04,VALID,917.084,VALID,0,VALID,94.6752,VALID,0,VALID,20.5594,VALID,138,VALID,0.276953,
2011-05-23, 01:02:04,VALID,917.071,VALID,0,VALID,94.6828,VALID,0.107441,VALID,20.5399,VALID,138,VALID,0.362109,
2011-05-23, 01:03:04,VALID,917.055,VALID,0,VALID,94.7438,VALID,0,VALID,20.5204,VALID,138,VALID,0.447656,
2011-05-23, 01:04:04,VALID,917.047,VALID,0,VALID,94.7819,VALID,0,VALID,20.5009,VALID,138,VALID,0.615625,
2011-05-23, 01:05:04,VALID,917.094,VALID,0,VALID,94.8429,VALID,0,VALID,20.5009,VALID,138,VALID,0.673047,
2011-05-23, 01:06:04,VALID,917.083,VALID,0,VALID,94.9344,VALID,0,VALID,20.4813,VALID,139,VALID,0.427734,
2011-05-23, 01:07:04,VALID,917.055,VALID,0,VALID,94.9573,VALID,0,VALID,20.4813,VALID,138,VALID,0.128516,
2011-05-23, 01:08:04,VALID,917.082,VALID,0,VALID,94.9954,VALID,0,VALID,20.4618,VALID,138,VALID,0.286719,
2011-05-23, 01:09:04,VALID,917.074,VALID,0,VALID,95.0335,VALID,0,VALID,20.4618,VALID,138,VALID,0.428906,
2011-05-23, 01:10:04,VALID,917.066,VALID,0,VALID,95.0564,VALID,0,VALID,20.4829,VALID,138,VALID,0.2625,
2011-05-23, 01:11:04,VALID,917.077,VALID,0,VALID,95.125,VALID,0,VALID,20.4618,VALID,138,VALID,0.000390625,
2011-05-23, 01:12:04,VALID,917.068,VALID,0,VALID,95.1174,VALID,0,VALID,20.4813,VALID,138,VALID,0.254297,
2011-05-23, 01:13:04,VALID,917.053,VALID,0,VALID,95.0411,VALID,0,VALID,20.4829,VALID,138,VALID,0.584375,
2011-05-23, 01:14:04,VALID,917.046,VALID,0,VALID,94.9573,VALID,0,VALID,20.4423,VALID,138,VALID,1.13437,
2011-05-23, 01:15:04,VALID,917.068,VALID,0,VALID,94.942,VALID,0,VALID,20.4228,VALID,138,VALID,0.89375,
2011-05-23, 01:16:04,VALID,917.098,VALID,0,VALID,94.9344,VALID,0,VALID,20.4244,VALID,139,VALID,0.494922,
2011-05-23, 01:17:04,VALID,917.107,VALID,0,VALID,94.9954,VALID,0,VALID,20.3838,VALID,138,VALID,0.634766,
2011-05-23, 01:18:04,VALID,917.109,VALID,0,VALID,95.1021,VALID,0,VALID,20.3854,VALID,138,VALID,0.720312,
2011-05-23, 01:19:04,VALID,917.14,VALID,0,VALID,95.3156,VALID,0,VALID,20.3823,VALID,139,VALID,1.04336,
2011-05-23, 01:20:04,VALID,917.157,VALID,0,VALID,95.3918,VALID,0,VALID,20.3838,VALID,139,VALID,0.699219,
2011-05-23, 01:21:04,VALID,917.123,VALID,0,VALID,95.4604,VALID,0,VALID,20.3838,VALID,139,VALID,0.769922,
2011-05-23, 01:22:04,VALID,917.124,VALID,0,VALID,95.59,VALID,0,VALID,20.3643,VALID,139,VALID,0.991406,
2011-05-23, 01:23:04,VALID,917.103,VALID,0,VALID,95.6967,VALID,0,VALID,20.4049,VALID,124,VALID,1.39102,
2011-05-23, 01:24:04,VALID,917.1,VALID,0,VALID,95.7577,VALID,0,VALID,20.4049,VALID,129,VALID,1.13594,
2011-05-23, 01:25:04,VALID,917.068,VALID,0,VALID,95.8492,VALID,0,VALID,20.3854,VALID,147,VALID,0.693359,
2011-05-23, 01:26:04,VALID,917.104,VALID,0,VALID,95.9712,VALID,0,VALID,20.4228,VALID,152,VALID,1.18125,
2011-05-23, 01:27:04,VALID,917.121,VALID,0,VALID,96.0855,VALID,0,VALID,20.4618,VALID,150,VALID,0.780859,
2011-05-23, 01:28:04,VALID,917.121,VALID,0,VALID,96.1389,VALID,0,VALID,20.4618,VALID,150,VALID,0.617578,
2011-05-23, 01:29:04,VALID,917.139,VALID,0,VALID,96.1618,VALID,0,VALID,20.4813,VALID,150,VALID,0.605078,
2011-05-23, 01:30:04,VALID,917.147,VALID,0,VALID,96.1618,VALID,0,VALID,20.5009,VALID,154,VALID,1.1168,
2011-05-23, 01:31:04,VALID,917.159,VALID,0,VALID,96.2075,VALID,0,VALID,20.5204,VALID,180,VALID,1.14844,
2011-05-23, 01:32:04,VALID,917.121,VALID,0,VALID,96.2456,VALID,0,VALID,20.5399,VALID,151,VALID,0.869141,
2011-05-23, 01:33:04,VALID,917.094,VALID,0,VALID,96.3066,VALID,0,VALID,20.5789,VALID,156,VALID,1.47109,
2011-05-23, 01:34:04,VALID,917.074,VALID,0,VALID,96.3219,VALID,0,VALID,20.6194,VALID,144,VALID,1.55977,
2011-05-23, 01:35:04,VALID,917.053,VALID,0,VALID,96.3142,VALID,0,VALID,20.639,VALID,161,VALID,0.938672,
2011-05-23, 01:36:04,VALID,917.018,VALID,0,VALID,96.2914,VALID,0,VALID,20.6179,VALID,143,VALID,0.505469,
2011-05-23, 01:37:04,VALID,917.02,VALID,0,VALID,96.299,VALID,0,VALID,20.639,VALID,140,VALID,0.969141,
2011-05-23, 01:38:04,VALID,917.028,VALID,0,VALID,96.2761,VALID,0,VALID,20.6179,VALID,143,VALID,0.560938,
2011-05-23, 01:39:04,VALID,917.04,VALID,0,VALID,96.2533,VALID,0,VALID,20.6194,VALID,103,VALID,0.553125,
2011-05-23, 01:40:04,VALID,917.054,VALID,0,VALID,96.238,VALID,0,VALID,20.6179,VALID,118,VALID,0.600781,
2011-05-23, 01:41:04,VALID,917.062,VALID,0,VALID,96.2456,VALID,0,VALID,20.6179,VALID,124,VALID,0.599609,
2011-05-23, 01:42:04,VALID,917.095,VALID,0,VALID,96.2304,VALID,0,VALID,20.639,VALID,125,VALID,0.551953,
2011-05-23, 01:43:04,VALID,917.086,VALID,0,VALID,96.2609,VALID,0,VALID,20.6179,VALID,125,VALID,0.0992187,
2011-05-23, 01:44:04,VALID,917.086,VALID,0,VALID,96.2228,VALID,0,VALID,20.639,VALID,125,VALID,0.734375,
2011-05-23, 01:45:04,VALID,917.082,VALID,0,VALID,96.1923,VALID,0,VALID,20.5984,VALID,147,VALID,1.00352,
2011-05-23, 01:46:04,VALID,917.066,VALID,0,VALID,96.1999,VALID,0,VALID,20.639,VALID,150,VALID,1.08672,
2011-05-23, 01:47:04,VALID,917.052,VALID,0,VALID,96.1923,VALID,0,VALID,20.639,VALID,139,VALID,0.786328,
2011-05-23, 01:48:04,VALID,917.037,VALID,0,VALID,96.1694,VALID,0,VALID,20.6374,VALID,139,VALID,0.632813,
2011-05-23, 01:49:04,VALID,917.026,VALID,0,VALID,96.1541,VALID,0,VALID,20.6374,VALID,138,VALID,1.48555,
2011-05-23, 01:50:04,VALID,917.019,VALID,0,VALID,96.0932,VALID,0,VALID,20.639,VALID,139,VALID,0.572266,
2011-05-23, 01:51:04,VALID,916.993,VALID,0,VALID,96.1236,VALID,0,VALID,20.6569,VALID,139,VALID,1.49219,
2011-05-23, 01:52:04,VALID,916.999,VALID,0,VALID,96.116,VALID,0,VALID,20.6569,VALID,137,VALID,1.06445,
2011-05-23, 01:53:04,VALID,916.973,VALID,0,VALID,96.116,VALID,0,VALID,20.678,VALID,150,VALID,1.06641,
2011-05-23, 01:54:04,VALID,916.961,VALID,0,VALID,96.0627,VALID,0,VALID,20.678,VALID,125,VALID,0.927344,
2011-05-23, 01:55:04,VALID,916.952,VALID,0,VALID,96.0245,VALID,0,VALID,20.678,VALID,120,VALID,1.31016,
2011-05-23, 01:56:04,VALID,916.964,VALID,0,VALID,95.9788,VALID,0,VALID,20.6569,VALID,116,VALID,1.01992,
2011-05-23, 01:57:04,VALID,916.953,VALID,0,VALID,95.9483,VALID,0,VALID,20.6585,VALID,116,VALID,1.19023,
2011-05-23, 01:58:04,VALID,916.95,VALID,0,VALID,95.895,VALID,0,VALID,20.639,VALID,116,VALID,1.12852,
2011-05-23, 01:59:04,VALID,916.923,VALID,0,VALID,95.8416,VALID,0,VALID,20.6585,VALID,150,VALID,0.867188,
2011-05-23, 02:00:04,VALID,916.908,VALID,0,VALID,95.8111,VALID,0,VALID,20.6569,VALID,142,VALID,0.703125,
2011-05-23, 02:01:04,VALID,916.9,VALID,0,VALID,95.7577,VALID,0,VALID,20.6569,VALID,164,VALID,0.747656,
2011-05-23, 02:02:04,VALID,916.89,VALID,0,VALID,95.7044,VALID,0,VALID,20.6569,VALID,164,VALID,0.605469,
2011-05-23, 02:03:04,VALID,916.868,VALID,0,VALID,95.6357,VALID,0,VALID,20.678,VALID,164,VALID,0.748047,
2011-05-23, 02:04:04,VALID,916.859,VALID,0,VALID,95.5595,VALID,0,VALID,20.6569,VALID,164,VALID,0.689453,
2011-05-23, 02:05:04,VALID,916.852,VALID,0,VALID,95.5062,VALID,0,VALID,20.6764,VALID,181,VALID,1.18164,
2011-05-23, 02:06:04,VALID,916.876,VALID,0,VALID,95.4604,VALID,0,VALID,20.6959,VALID,156,VALID,0.973047,
2011-05-23, 02:07:04,VALID,916.856,VALID,0,VALID,95.4375,VALID,0,VALID,20.6959,VALID,156,VALID,1.11094,
2011-05-23, 02:08:04,VALID,916.823,VALID,0,VALID,95.4223,VALID,0.107441,VALID,20.6553,VALID,156,VALID,0.678906,
2011-05-23, 02:09:04,VALID,916.867,VALID,0,VALID,95.3842,VALID,0,VALID,20.6569,VALID,157,VALID,0.867188,
2011-05-23, 02:10:04,VALID,916.869,VALID,0,VALID,95.3689,VALID,0,VALID,20.6569,VALID,184,VALID,0.596094,
2011-05-23, 02:11:04,VALID,916.857,VALID,0,VALID,95.3156,VALID,0,VALID,20.6374,VALID,168,VALID,0.994922,
2011-05-23, 02:12:04,VALID,916.879,VALID,0,VALID,95.2622,VALID,0,VALID,20.6585,VALID,152,VALID,0.364844,
2011-05-23, 02:13:04,VALID,916.851,VALID,0,VALID,95.2165,VALID,0,VALID,20.6585,VALID,152,VALID,0.56875,
2011-05-23, 02:14:04,VALID,916.834,VALID,0,VALID,95.1555,VALID,0,VALID,20.5968,VALID,125,VALID,0.521875,
2011-05-23, 02:15:04,VALID,916.859,VALID,0,VALID,95.1326,VALID,0,VALID,20.6179,VALID,151,VALID,0.730859,
2011-05-23, 02:16:04,VALID,916.856,VALID,0,VALID,95.1402,VALID,0.107441,VALID,20.6179,VALID,151,VALID,0.158203,
2011-05-23, 02:17:04,VALID,916.914,VALID,0,VALID,95.1021,VALID,0,VALID,20.6179,VALID,151,VALID,0.226953,
2011-05-23, 02:18:04,VALID,916.943,VALID,0,VALID,95.0869,VALID,0,VALID,20.639,VALID,151,VALID,0.213281,
2011-05-23, 02:19:04,VALID,916.974,VALID,0,VALID,95.0869,VALID,0,VALID,20.5984,VALID,151,VALID,0.575781,
2011-05-23, 02:20:04,VALID,916.993,VALID,0,VALID,95.0106,VALID,0,VALID,20.5773,VALID,8,VALID,1.23359,
2011-05-23, 02:21:04,VALID,917.019,VALID,0,VALID,94.8734,VALID,0,VALID,20.5594,VALID,8,VALID,1.28281,
2011-05-23, 02:22:04,VALID,916.995,VALID,0,VALID,94.942,VALID,0,VALID,20.5204,VALID,8,VALID,0.804688,
2011-05-23, 02:23:04,VALID,917.013,VALID,0,VALID,95.0259,VALID,0,VALID,20.4813,VALID,8,VALID,1.11523,
2011-05-23, 02:24:04,VALID,917.005,VALID,0,VALID,95.1936,VALID,0,VALID,20.4439,VALID,8,VALID,0.900391,
2011-05-23, 02:25:04,VALID,917.002,VALID,0,VALID,95.3689,VALID,0,VALID,20.3643,VALID,8,VALID,0.586328,
2011-05-23, 02:26:04,VALID,916.996,VALID,0,VALID,95.5595,VALID,0,VALID,20.3448,VALID,8,VALID,0.321484,
2011-05-23, 02:27:04,VALID,917,VALID,0,VALID,95.7425,VALID,0,VALID,20.3253,VALID,8,VALID,0.124219,
2011-05-23, 02:28:04,VALID,916.964,VALID,0,VALID,95.8263,VALID,0,VALID,20.2863,VALID,8,VALID,0.801562,
2011-05-23, 02:29:04,VALID,917.003,VALID,0,VALID,95.9636,VALID,0,VALID,20.2863,VALID,8,VALID,0.770703,
2011-05-23, 02:30:04,VALID,916.982,VALID,0,VALID,96.055,VALID,0,VALID,20.2668,VALID,8,VALID,0.567578,
2011-05-23, 02:31:04,VALID,916.952,VALID,0,VALID,96.116,VALID,0,VALID,20.2684,VALID,8,VALID,0.784766,
2011-05-23, 02:32:04,VALID,916.983,VALID,0,VALID,96.2304,VALID,0,VALID,20.2489,VALID,8,VALID,0.739453,
2011-05-23, 02:33:04,VALID,916.965,VALID,0,VALID,96.2456,VALID,0,VALID,20.2278,VALID,8,VALID,0.701953,
2011-05-23, 02:34:04,VALID,916.98,VALID,0,VALID,96.3524,VALID,0,VALID,20.2083,VALID,8,VALID,0.387891,
2011-05-23, 02:35:04,VALID,916.959,VALID,0,VALID,96.4438,VALID,0,VALID,20.2489,VALID,8,VALID,0,
2011-05-23, 02:36:04,VALID,917.013,VALID,0,VALID,96.4819,VALID,0,VALID,20.2473,VALID,8,VALID,0,
2011-05-23, 02:37:04,VALID,916.992,VALID,0,VALID,96.4896,VALID,0,VALID,20.2278,VALID,8,VALID,0,
2011-05-23, 02:38:04,VALID,916.978,VALID,0,VALID,96.5277,VALID,0,VALID,20.2278,VALID,8,VALID,0,
2011-05-23, 02:39:04,VALID,916.966,VALID,0,VALID,96.5277,VALID,0,VALID,20.2083,VALID,8,VALID,0,
2011-05-23, 02:40:04,VALID,916.935,VALID,0,VALID,96.5811,VALID,0.107441,VALID,20.2083,VALID,8,VALID,0,
2011-05-23, 02:41:04,VALID,916.94,VALID,0,VALID,96.5658,VALID,0,VALID,20.1888,VALID,8,VALID,0.2125,
2011-05-23, 02:42:04,VALID,916.969,VALID,0,VALID,96.5658,VALID,0,VALID,20.1888,VALID,8,VALID,0.379297,
2011-05-23, 02:43:04,VALID,917,VALID,0,VALID,96.6344,VALID,0,VALID,20.1888,VALID,8,VALID,0.308984,
2011-05-23, 02:44:04,VALID,917.048,VALID,0,VALID,96.642,VALID,0,VALID,20.1888,VALID,8,VALID,0.364062,
2011-05-23, 02:45:04,VALID,917.043,VALID,0,VALID,96.6573,VALID,0,VALID,20.1888,VALID,8,VALID,0.356641,
2011-05-23, 02:46:04,VALID,917.066,VALID,0,VALID,96.6497,VALID,0,VALID,20.1888,VALID,8,VALID,0.491797,
2011-05-23, 02:47:04,VALID,917.096,VALID,0,VALID,96.6725,VALID,0,VALID,20.2098,VALID,8,VALID,0.416797,
2011-05-23, 02:48:04,VALID,917.109,VALID,0,VALID,96.7107,VALID,0,VALID,20.2083,VALID,8,VALID,0.348828,
2011-05-23, 02:49:04,VALID,917.127,VALID,0,VALID,96.7259,VALID,0,VALID,20.2473,VALID,8,VALID,0.539453,
2011-05-23, 02:50:04,VALID,917.141,VALID,0,VALID,96.7183,VALID,0,VALID,20.2668,VALID,8,VALID,0.553516,
2011-05-23, 02:51:04,VALID,917.166,VALID,0,VALID,96.7259,VALID,0,VALID,20.3074,VALID,8,VALID,0.527734,
2011-05-23, 02:52:04,VALID,917.188,VALID,0,VALID,96.7259,VALID,0,VALID,20.3253,VALID,8,VALID,0.383984,
2011-05-23, 02:53:04,VALID,917.183,VALID,0,VALID,96.7411,VALID,0,VALID,20.3464,VALID,8,VALID,0.273047,
2011-05-23, 02:54:04,VALID,917.216,VALID,0,VALID,96.7183,VALID,0,VALID,20.3253,VALID,8,VALID,0.198437,
2011-05-23, 02:55:04,VALID,917.236,VALID,0,VALID,96.7335,VALID,0,VALID,20.3448,VALID,8,VALID,0.05625,
2011-05-23, 02:56:04,VALID,917.217,VALID,0,VALID,96.6878,VALID,0,VALID,20.3269,VALID,8,VALID,0.377344,
2011-05-23, 02:57:04,VALID,917.232,VALID,0,VALID,96.703,VALID,0,VALID,20.3253,VALID,8,VALID,0.114063,
2011-05-23, 02:58:04,VALID,917.248,VALID,0,VALID,96.703,VALID,0,VALID,20.3448,VALID,8,VALID,0.428125,
2011-05-23, 02:59:04,VALID,917.247,VALID,0,VALID,96.7411,VALID,0,VALID,20.3659,VALID,8,VALID,0.439453,
2011-05-23, 03:00:04,VALID,917.238,VALID,0,VALID,96.7259,VALID,0,VALID,20.3659,VALID,8,VALID,0,
2011-05-23, 03:01:04,VALID,917.227,VALID,0,VALID,96.7183,VALID,0,VALID,20.3854,VALID,8,VALID,0,
2011-05-23, 03:02:04,VALID,917.227,VALID,0,VALID,96.7259,VALID,0,VALID,20.4049,VALID,8,VALID,0.0441406,
2011-05-23, 03:03:04,VALID,917.213,VALID,0,VALID,96.7335,VALID,0,VALID,20.4033,VALID,8,VALID,0.0597656,
2011-05-23, 03:04:04,VALID,917.217,VALID,0,VALID,96.6954,VALID,0,VALID,20.4244,VALID,8,VALID,0.0539063,
2011-05-23, 03:05:04,VALID,917.221,VALID,0,VALID,96.6573,VALID,0,VALID,20.4244,VALID,8,VALID,0.266406,
2011-05-23, 03:06:04,VALID,917.228,VALID,0,VALID,96.6573,VALID,0,VALID,20.4049,VALID,8,VALID,0.0308594,
2011-05-23, 03:07:04,VALID,917.238,VALID,0,VALID,96.642,VALID,0,VALID,20.4049,VALID,8,VALID,0.214062,
2011-05-23, 03:08:04,VALID,917.262,VALID,0,VALID,96.6573,VALID,0,VALID,20.4439,VALID,8,VALID,0,
2011-05-23, 03:09:04,VALID,917.28,VALID,0,VALID,96.6268,VALID,0,VALID,20.4634,VALID,8,VALID,0.684375,
2011-05-23, 03:10:04,VALID,917.289,VALID,0,VALID,96.6344,VALID,0,VALID,20.4634,VALID,8,VALID,0.0722656,
2011-05-23, 03:11:04,VALID,917.293,VALID,0,VALID,96.6115,VALID,0,VALID,20.4829,VALID,8,VALID,0,
2011-05-23, 03:12:04,VALID,917.326,VALID,0,VALID,96.5811,VALID,0,VALID,20.4618,VALID,8,VALID,0.397656,
2011-05-23, 03:13:04,VALID,917.322,VALID,0,VALID,96.5887,VALID,0,VALID,20.5024,VALID,8,VALID,0.726172,
2011-05-23, 03:14:04,VALID,917.36,VALID,0,VALID,96.5734,VALID,0,VALID,20.5219,VALID,8,VALID,0.1625,
2011-05-23, 03:15:04,VALID,917.378,VALID,0,VALID,96.5353,VALID,0,VALID,20.5219,VALID,8,VALID,0.615625,
2011-05-23, 03:16:04,VALID,917.389,VALID,0,VALID,96.5506,VALID,0,VALID,20.5204,VALID,8,VALID,0.657812,
2011-05-23, 03:17:04,VALID,917.391,VALID,0,VALID,96.4591,VALID,0,VALID,20.5204,VALID,19,VALID,1.12109,
2011-05-23, 03:18:04,VALID,917.447,VALID,0,VALID,96.4133,VALID,0,VALID,20.5414,VALID,23,VALID,1.05977,
2011-05-23, 03:19:04,VALID,917.434,VALID,0,VALID,96.3829,VALID,0,VALID,20.4829,VALID,23,VALID,1.35742,
2011-05-23, 03:20:04,VALID,917.439,VALID,0,VALID,96.3829,VALID,0,VALID,20.4634,VALID,23,VALID,1.16445,
2011-05-23, 03:21:04,VALID,917.467,VALID,0,VALID,96.4362,VALID,0,VALID,20.4634,VALID,23,VALID,0.599219,
2011-05-23, 03:22:04,VALID,917.489,VALID,0,VALID,96.4591,VALID,0,VALID,20.4439,VALID,23,VALID,0.757813,
2011-05-23, 03:23:04,VALID,917.487,VALID,0,VALID,96.4133,VALID,0,VALID,20.4244,VALID,23,VALID,1.1168,
2011-05-23, 03:24:04,VALID,917.461,VALID,0,VALID,96.4591,VALID,0,VALID,20.3643,VALID,23,VALID,1.26016,
2011-05-23, 03:25:04,VALID,917.446,VALID,0,VALID,96.4667,VALID,0,VALID,20.4049,VALID,37,VALID,1.14414,
2011-05-23, 03:26:04,VALID,917.475,VALID,0,VALID,96.421,VALID,0,VALID,20.3869,VALID,39,VALID,0.810547,
2011-05-23, 03:27:04,VALID,917.442,VALID,0,VALID,96.3905,VALID,0,VALID,20.3869,VALID,39,VALID,0.921484,
2011-05-23, 03:28:04,VALID,917.446,VALID,0,VALID,96.4057,VALID,0,VALID,20.3464,VALID,39,VALID,0.689062,
2011-05-23, 03:29:04,VALID,917.449,VALID,0,VALID,96.421,VALID,0,VALID,20.3479,VALID,39,VALID,0.924219,
2011-05-23, 03:30:04,VALID,917.437,VALID,0,VALID,96.3219,VALID,0,VALID,20.3074,VALID,357,VALID,1.49883,
2011-05-23, 03:31:04,VALID,917.445,VALID,0,VALID,96.2456,VALID,0,VALID,20.2489,VALID,345,VALID,1.28164,
2011-05-23, 03:32:04,VALID,917.447,VALID,0,VALID,96.3066,VALID,0,VALID,20.2309,VALID,6,VALID,1.31758,
2011-05-23, 03:33:04,VALID,917.419,VALID,0,VALID,96.421,VALID,0,VALID,20.2098,VALID,12,VALID,1.32578,
2011-05-23, 03:34:04,VALID,917.447,VALID,0,VALID,96.4515,VALID,0,VALID,20.2309,VALID,12,VALID,0.974219,
2011-05-23, 03:35:04,VALID,917.45,VALID,0,VALID,96.4667,VALID,0,VALID,20.1903,VALID,12,VALID,0.857031,
2011-05-23, 03:36:04,VALID,917.453,VALID,0,VALID,96.421,VALID,0,VALID,20.1693,VALID,12,VALID,1.02148,
2011-05-23, 03:37:04,VALID,917.439,VALID,0,VALID,96.4515,VALID,0,VALID,20.1513,VALID,12,VALID,1.0207,
2011-05-23, 03:38:04,VALID,917.422,VALID,0,VALID,96.4515,VALID,0,VALID,20.1513,VALID,12,VALID,1.18047,
2011-05-23, 03:39:04,VALID,917.417,VALID,0,VALID,96.4896,VALID,0,VALID,20.1318,VALID,12,VALID,1.03477,
2011-05-23, 03:40:04,VALID,917.408,VALID,0,VALID,96.5582,VALID,0,VALID,20.1318,VALID,12,VALID,0.9375,
2011-05-23, 03:41:04,VALID,917.39,VALID,0,VALID,96.4972,VALID,0,VALID,20.0928,VALID,12,VALID,1.56367,
2011-05-23, 03:42:04,VALID,917.379,VALID,0,VALID,96.5506,VALID,0,VALID,20.0733,VALID,12,VALID,1.09258,
2011-05-23, 03:43:04,VALID,917.36,VALID,0,VALID,96.6192,VALID,0,VALID,20.0733,VALID,12,VALID,1.01719,
2011-05-23, 03:44:04,VALID,917.371,VALID,0,VALID,96.6268,VALID,0,VALID,20.0733,VALID,52,VALID,0.558984,
2011-05-23, 03:45:04,VALID,917.322,VALID,0,VALID,96.6344,VALID,0,VALID,20.0928,VALID,52,VALID,0.646094,
2011-05-23, 03:46:04,VALID,917.322,VALID,0,VALID,96.3905,VALID,0,VALID,20.0148,VALID,52,VALID,0.965625,